Regional Weather Roundup
Issued by NWS

Home | Current Version | Previous Version | Graphics & Text | Print | Product List | Glossary On
Versions: 1 2 3 4 5 6 7 8 9 10 11 12 13 14 15 16 17 18 19 20 21 22 23 24 25 26 27 28 29 30 31 32 33 34 35 36 37 38 39 40 41 42 43 44 45 46 47 48 49 50
099
ASUS43 KDTX 301210
RWRMI
MICHIGAN HOURLY REGIONAL WEATHER ROUNDUP
NATIONAL WEATHER SERVICE DETROIT/PONTIAC MI
800 AM EDT SUN APR 30 2017

NOTE: "FAIR" INDICATES FEW OR NO CLOUDS BELOW 12,000 FEET WITH NO
SIGNIFICANT WEATHER AND/OR OBSTRUCTION TO VISIBILITY.

MIZ047>049-052>055-059>063-066>070-074>076-081>083-301300-
SOUTHEAST LOWER MICHIGAN

CITY           SKY/WX    TMP DP  RH WIND       PRES   REMARKS
ADRIAN         CLOUDY    46  44  93 E9        29.99F
6HR MIN TEMP:  40; 6HR MAX TEMP:  46; 6HR PCP:  0.21;

ALMA           LGT SNOW  41  40  97 NE15G23   30.08F
ANN ARBOR      CLOUDY    45  41  86 NE13      30.01F
BAD AXE        FLURRIES  38  36  93 NE8       30.15S WCI  32
6HR MIN TEMP:  38; 6HR MAX TEMP:  42;

CARO           RAIN      40  39  95 NE8       30.11R WCI  35
DETROIT CITY   CLOUDY    46  41  82 E10       30.05S
6HR MIN TEMP:  42; 6HR MAX TEMP:  46; 6HR PCP:  0.30;

DETROIT        CLOUDY    46  40  79 E10       30.04R
6HR MIN TEMP:  43; 6HR MAX TEMP:  46; 6HR PCP:  0.38;

FLINT          CLOUDY    43  39  86 E12       30.07R
6HR MIN TEMP:  40; 6HR MAX TEMP:  43; 6HR PCP:  0.24;

GROSSE ILE     CLOUDY    46  41  84 E13G18    30.02R
6HR MIN TEMP:  44; 6HR MAX TEMP:  46; 6HR PCP:  0.21;

HILLSDALE      CLOUDY    43  41  93 E13       29.98S FOG
HOWELL         CLOUDY    43  39  86 NE7       30.03S
6HR MIN TEMP:  39; 6HR MAX TEMP:  43; 6HR PCP:  0.09;


CITY           SKY/WX    TMP DP  RH WIND       PRES   REMARKS
JACKSON        CLOUDY    45  41  86 E6        30.01S
6HR MIN TEMP:  41; 6HR MAX TEMP:  45; 6HR PCP:  0.04;

LAMBERTVILLE   CLOUDY    47  45  91 SE8G20    29.98F
6HR MIN TEMP:  41; 6HR MAX TEMP:  47;

LANSING        LGT RAIN  42  38  85 NE13      30.02F FOG
6HR MIN TEMP:  40; 6HR MAX TEMP:  42; 6HR PCP:  0.17;

LAPEER         CLOUDY    42  40  93 NE9       30.08R
6HR MIN TEMP:  40; 6HR MAX TEMP:  42; 6HR PCP:  0.17;

MASON          LGT RAIN  43  41  93 E6        30.03S
MONROE         CLOUDY    48  44  87 E12G23    30.00S
6HR MIN TEMP:  42; 6HR MAX TEMP:  48; 6HR PCP:  0.22;

MT. CLEMENS    CLOUDY    45  40  81 E10       30.05R
6HR MIN TEMP:  42; 6HR MAX TEMP:  45; 6HR PCP:  0.30;

PONTIAC        LGT RAIN  43  38  82 E10G20    30.02F
6HR MIN TEMP:  41; 6HR MAX TEMP:  43; 6HR PCP:  0.18;

PORT HOPE        N/A     39  37  92 NE26      30.15S WCI  28
6HR MIN TEMP:  39; 6HR MAX TEMP:  44; 6HR PCP:  0.13;

PORT HURON     CLOUDY    45  36  70 E8        30.07F
TRI CITIES     RAIN      42  40  92 NE17G24   30.12R FOG
6HR MIN TEMP:  41; 6HR MAX TEMP:  44; 6HR PCP:  0.30;

MIDLAND        LGT RAIN  42  39  88 NE16      30.13R
6HR MIN TEMP:  42; 6HR MAX TEMP:  43; 6HR PCP:  0.17;

TROY           CLOUDY    45  39  79 E10       30.07R
SAGINAW HB     LGT RAIN  41  36  81 NE15G23   30.11R
$$
MIZ043>046-050>051-056>058-064>065-071>073-077>080-301300-
SOUTHWEST LOWER MICHIGAN

CITY           SKY/WX    TMP DP  RH WIND       PRES   REMARKS
BATTLE CREEK   CLOUDY    44  42  93 E13G20    29.98F
6HR MIN TEMP:  41; 6HR MAX TEMP:  44; 6HR PCP:  0.04;

BENTON HARBOR  LGT RAIN  46  42  86 E9        29.93R FOG
6HR MIN TEMP:  44; 6HR MAX TEMP:  46; 6HR PCP:  0.06;

BIG RAPIDS     MIX PCPN  38  36  90 E18G25    30.07F WCI  29
6HR MIN TEMP:  38; 6HR MAX TEMP:  40; 6HR PCP:  0.12;

COLDWATER      CLOUDY    45  43  93 E8        29.97F FOG
6HR MIN TEMP:  41; 6HR MAX TEMP:  45;

FREMONT        DRIZZLE   42  40  91 E17G23    30.03S
HOLLAND        LGT RAIN  43  40  89 E14G21    29.99S
6HR MIN TEMP:  42; 6HR MAX TEMP:  43; 6HR PCP:  0.09;

GRAND RAPIDS   LGT RAIN  41  41 100 E17       30.00F
6HR MIN TEMP:  40; 6HR MAX TEMP:  41; 6HR PCP:  0.29;

IONIA          LGT RAIN  40  39  95 NE17G25   30.01F WCI  31
6HR MIN TEMP:  39; 6HR MAX TEMP:  40; 6HR PCP:  0.14;

KALAMAZOO      CLOUDY    45  40  82 E8        29.97S
6HR MIN TEMP:  43; 6HR MAX TEMP:  45; 6HR PCP:  0.17;

LUDINGTON      CLOUDY    40  39  96 E16G23    30.04F FOG     WCI  31
6HR MIN TEMP:  39; 6HR MAX TEMP:  41; 6HR PCP:  0.20;

MARSHALL       CLOUDY    44  43  97 E6        29.99R
6HR MIN TEMP:  40; 6HR MAX TEMP:  44; 6HR PCP:  0.01;

MOUNT PLEASANT LGT RAIN  39  38  93 NE13G21   30.09F WCI  32
6HR MIN TEMP:  39; 6HR MAX TEMP:  41; 6HR PCP:  0.27;

MUSKEGON       LGT RAIN  43  40  89 E17       29.99F FOG
6HR MIN TEMP:  41; 6HR MAX TEMP:  43; 6HR PCP:  0.20;

SOUTH HAVEN    DRIZZLE   43  42  95 E9        29.95R
$$
MIZ016>042-301300-
NORTHERN LOWER MICHIGAN

CITY           SKY/WX    TMP DP  RH WIND       PRES   REMARKS
ALPENA         LGT RAIN  35  34  96 E13       30.26R WCI  26
6HR MIN TEMP:  35; 6HR MAX TEMP:  45; 6HR PCP:  0.16;

BEAVER ISLAND  CLOUDY    40  30  68 E14G23    30.23R WCI  32
BELLAIRE       MIX PCPN  37  33  88 E7        30.19F WCI  31
6HR MIN TEMP:  36; 6HR MAX TEMP:  44;

CADILLAC       DRIZZLE   36  35  96 E17G24    30.10S WCI  26
CHARLEVOIX     CLOUDY    38  32  80 E15G22    30.23S WCI  29
6HR MIN TEMP:  38; 6HR MAX TEMP:  43;

FRANKFORT      CLOUDY    39  34  84 NE9G16    30.11F WCI  33
GAYLORD        LGT RAIN  35  31  85 E10G17    30.19R FOG     WCI  27
6HR MIN TEMP:  34; 6HR MAX TEMP:  43; 6HR PCP:  0.06;

GRAYLING       LGT RAIN  34  33  95 E9        30.17F WCI  27
HARBOR SPRINGS DRIZZLE   36  32  85 E15G25    30.22S WCI  26
HOUGHTON LAKE  MIX PCPN  35  33  92 E17G24    30.15F FOG     WCI  25
6HR MIN TEMP:  35; 6HR MAX TEMP:  41; 6HR PCP:  0.31;

MANISTEE       LGT RAIN  40  37  89 E12       30.08S WCI  33
OSCODA         LGT SNOW  37  35  92 NE15G28   30.20F WCI  28
6HR MIN TEMP:  37; 6HR MAX TEMP:  45; 6HR PCP:  0.13;

PELLSTON       LGT RAIN  37  29  72 E15       30.24S WCI  28
6HR MIN TEMP:  37; 6HR MAX TEMP:  43; 6HR PCP: TRACE;

ROGERS CITY    CLOUDY    36  31  82 E9G20     30.27S WCI  29
TRAVERSE CITY  CLOUDY    38  35  89 E12       30.14F FOG     WCI  30
6HR MIN TEMP:  38; 6HR MAX TEMP:  44; 6HR PCP:  0.05;

$$
MIZ007>008-015-301300-
EASTERN UPPER MICHIGAN

CITY           SKY/WX    TMP DP  RH WIND       PRES   REMARKS
KINROSS        CLOUDY    40  24  53 E12       30.27R WCI  33
6HR MIN TEMP:  38; 6HR MAX TEMP:  41;

MACKINAC ISLAN CLOUDY    38  28  68 E15G29    30.25S WCI  29
6HR MIN TEMP:  38; 6HR MAX TEMP:  42;

NEWBERRY       MOSUNNY   38  30  72 E6        30.26R WCI  34
6HR MIN TEMP:  33; 6HR MAX TEMP:  38;

S. S. MARIE    CLOUDY    42  23  46 E9        30.28R
6HR MIN TEMP:  40; 6HR MAX TEMP:  44;

MUNISING         N/A     42  28  57 E9        30.23S
6HR MIN TEMP:  37; 6HR MAX TEMP:  42;

$$
MIZ004>006-011>014-085-301300-
CENTRAL UPPER MICHIGAN

CITY           SKY/WX    TMP DP  RH WIND       PRES   REMARKS
MANISTIQUE     CLOUDY    41  26  57 E12G25    30.23F
6HR MIN TEMP:  36; 6HR MAX TEMP:  41;

ESCANABA       CLOUDY    43  33  68 E12       30.19F
6HR MIN TEMP:  37; 6HR MAX TEMP:  43;

MENOMINEE      CLOUDY    41  35  79 E14G22    30.15F
6HR MIN TEMP:  39; 6HR MAX TEMP:  41;

SAWYER-GWINN   SUNNY     36  28  75 E6        30.22F WCI  31
$$
MIZ001>003-009>011-084-301300-
WESTERN UPPER MICHIGAN

CITY           SKY/WX    TMP DP  RH WIND       PRES   REMARKS
IRON MOUNTAIN  CLOUDY    39  26  59 E7        30.15F WCI  34
6HR MIN TEMP:  37; 6HR MAX TEMP:  39;

HOUGHTON       CLOUDY    38  28  67 E9        30.23S WCI  31
6HR MIN TEMP:  33; 6HR MAX TEMP:  39;

COPPER HARBOR    N/A     40  29  64 SE3       30.26S
6HR MIN TEMP:  33; 6HR MAX TEMP:  40;

IRONWOOD       CLOUDY    36  21  54 E13       30.15F WCI  27
6HR MIN TEMP:  34; 6HR MAX TEMP:  36;

$$

ABBREVIATIONS USED IN REMARKS
   TC - TEMPERATURE IN CELSIUS
  WCI - WIND CHILL INDEX
   HX - HEAT INDEX
  VSB - VISIBILITY





USA.gov is the U.S. government's official web portal to all federal, state and local government web resources and services.